[[{"header":{"parameterUnit":"m.s-1","parameterCategory":1,"la1":30.2991,"la2":30.254,"lo1":-89.0895,"lo2":-89.0444,"dy":0.0017,"dx":0.0017,"nx":28,"ny":28,"refTime":"2024-10-14T21:00:00:Z","depth":0,"parameterNumber":2,"parameterNumberName":"U-component_of_WINDS"},"data":[0,0,0,0,0,0,0,0,0,0,0,0,0,0,0,0,0,0,0,0,0,0,0,0,0,0,0,0,0,0,0,0,0,0,0,0,0,0,0,0,0,0,0,0,0,0,0,0,0,0,0,0,0,0,0,0,0,0,-2.2977,-2.2977,0,-2.2985,-2.2985,-2.2985,-2.2931,-2.2929,-2.2928,-2.2926,-2.2934,-2.2936,-2.2938,0,0,0,0,0,0,0,0,0,0,0,0,0,-2.2916,-2.2918,-2.2977,-2.2977,-2.2977,-2.2985,-2.2985,-2.2985,-2.2931,-2.2929,-2.2928,-2.2926,-2.2934,-2.2936,-2.2938,0,0,0,0,0,0,0,0,0,0,0,0,0,-2.2935,-2.2918,-2.2977,-2.2951,-2.2949,-2.2985,-2.2985,-2.2985,-2.2932,-2.2929,-2.2927,-2.2925,-2.2933,-2.2936,-2.2938,-2.2998,0,0,-2.2945,-2.2946,0,0,0,0,0,0,0,0,-2.2934,-2.2937,-2.2955,-2.2953,-2.2951,-2.2954,-2.2966,-2.2989,-2.2932,-2.2938,-2.2926,-2.2924,-2.2943,-2.2944,-2.2951,-2.2999,-2.2999,-2.2946,-2.2947,-2.2948,-2.2949,0,0,0,0,0,0,0,-2.2933,-2.2937,-2.298,-2.2955,-2.2953,-2.2939,-2.294,-2.297,-2.2953,-2.2938,-2.2934,-2.2935,-2.2941,-2.2949,-2.2951,-2.2999,-2.2946,-2.2948,-2.2949,-2.295,-2.3097,-2.3099,0,0,0,0,0,0,-2.2935,-2.2936,-2.298,-2.298,-2.2937,-2.2942,-2.2943,-2.2956,-2.2953,-2.295,-2.2937,-2.2933,-2.2946,-2.2948,-2.2951,-2.3021,-2.2948,-2.295,-2.2952,-2.3094,-2.3097,-2.31,0,0,0,0,0,0,-2.2934,-2.2939,-2.298,-2.2957,-2.2961,-2.2946,-2.2961,-2.2957,-2.2964,-2.2952,-2.2949,-2.2948,-2.2944,-2.2947,-2.2987,-2.3021,-2.2951,-2.2954,-2.3092,-2.3095,-2.3099,-2.3163,0,0,0,0,0,0,-2.2932,-2.2939,-2.2962,-2.2958,-2.2963,-2.3016,-2.2963,-2.2959,-2.2969,-2.2963,-2.2962,-2.2959,-2.2942,-2.2984,-2.2989,-2.3023,-2.2956,-2.3089,-2.3093,-2.3098,-2.3158,-2.3169,-2.3178,0,0,0,0,0,-2.293,-2.298,-2.2964,-2.2969,-2.2991,-2.3018,-2.3021,-2.3,-2.2971,-2.2994,-2.2987,-2.2959,-2.3016,-2.2988,-2.2994,-2.3029,-2.3086,-2.3092,-2.3097,-2.3154,-2.3167,-2.3178,0,0,0,0,0,0,-2.2989,-2.2979,-2.2961,-2.3011,-2.3016,-2.3009,-2.3037,-2.3015,-2.3028,-2.3022,-2.2996,-2.2996,-2.304,-2.3038,-2.3007,-2.3087,-2.3046,-2.3053,-2.3087,-2.3099,-2.3109,-2.3109,-2.2958,0,0,0,0,0,-2.3008,-2.3031,-2.3021,-2.3066,-2.3069,-2.3053,-2.3064,-2.3048,-2.3052,-2.3054,-2.3049,-2.3054,-2.3072,-2.3086,-2.3102,-2.3157,-2.3156,-2.3184,-2.3194,-2.3202,-2.3209,-2.3238,-2.325,-2.3118,-2.3118,-2.3118,0,0,-2.3047,-2.3044,-2.3061,-2.3078,-2.3079,-2.3104,-2.3055,-2.3083,-2.3101,-2.3058,-2.3095,-2.3092,-2.3095,-2.3143,-2.3164,-2.3143,-2.3245,-2.3209,-2.3216,-2.3218,-2.3245,-2.3258,-2.3269,-2.3122,-2.3121,-2.3121,0,0,-2.3131,-2.3131,-2.3169,-2.3171,-2.3175,-2.3163,-2.3173,-2.3169,-2.3165,-2.3202,-2.317,-2.3191,-2.3224,-2.3228,-2.3234,-2.3319,-2.3294,-2.3325,-2.3377,-2.3406,-2.3416,-2.3425,-2.3456,-2.3467,-2.3332,-2.3332,-2.3332,0,-2.3179,-2.3215,-2.3191,-2.3221,-2.3229,-2.3191,-2.3229,-2.3233,-2.3242,-2.3248,-2.3225,-2.3265,-2.3265,-2.3313,-2.3334,-2.334,-2.335,-2.3326,-2.3417,-2.3426,-2.3434,-2.3463,-2.3474,-2.3335,-2.3335,-2.3335,-2.3334,0,-2.3274,-2.3299,-2.3329,-2.3338,-2.335,-2.3384,-2.3365,-2.338,-2.3362,-2.3354,-2.3391,-2.339,-2.3405,-2.3415,-2.3399,-2.3461,-2.3448,-2.3421,-2.3379,-2.3451,-2.3477,-2.3488,-2.3341,-2.334,-2.3338,-2.3337,0,0,-2.3396,-2.3392,-2.3403,-2.3407,-2.3407,-2.3426,-2.3458,-2.3473,-2.3486,-2.3493,-2.352,-2.3548,-2.3523,-2.353,-2.3513,-2.3538,-2.3606,-2.3508,-2.3507,-2.3527,-2.3675,-2.3697,-2.371,-2.3589,-2.3591,-2.3593,-2.3675,0,-2.3479,-2.3533,-2.3512,-2.3568,-2.3591,-2.3555,-2.3583,-2.3586,-2.3578,-2.3596,-2.3588,-2.3609,-2.3573,-2.3578,-2.3601,-2.3593,-2.3636,-2.3586,-2.3614,-2.3615,-2.3615,-2.3724,-2.3746,-2.3824,-2.3685,-2.3687,-2.3688,0,-2.3582,-2.3593,-2.3652,-2.3648,-2.3657,-2.3682,-2.3694,-2.3712,-2.3715,-2.3707,-2.3716,-2.3693,-2.3724,-2.3681,-2.3724,-2.3691,-2.3701,-2.3698,-2.3701,-2.3703,-2.3657,-2.373,-2.3849,-2.3861,-2.3705,-2.3703,-2.3702,0,-2.3667,-2.3696,-2.3735,-2.3739,-2.3735,-2.3754,-2.3753,-2.3754,-2.3764,-2.3775,-2.3781,-2.3795,-2.3803,-2.3814,-2.3796,-2.3767,-2.3841,-2.3797,-2.3837,-2.3837,-2.3855,-2.3854,-2.3978,-2.386,-2.386,-2.3859,-2.3859,0,-2.3761,-2.3799,-2.3772,-2.3797,-2.3837,-2.3813,-2.3853,-2.3849,-2.3849,-2.3872,-2.3841,-2.3862,-2.3836,-2.3856,-2.3841,-2.3879,-2.3882,-2.3878,-2.3874,-2.3881,-2.3882,-2.3888,-2.3882,-2.3862,-2.3862,-2.3861,-2.3861,0,-2.3863,-2.3847,-2.3887,-2.388,-2.3879,-2.3909,-2.3903,-2.3925,-2.3915,-2.3943,-2.3949,-2.3933,-2.3954,-2.3936,-2.3957,-2.3947,-2.3997,-2.3985,-2.3996,-2.3993,-2.4034,-2.403,-2.4166,-2.4183,-2.4053,-2.4055,-2.4056,0,-2.3925,-2.3953,-2.3949,-2.3961,-2.3963,-2.3983,-2.3994,-2.397,-2.3982,-2.3987,-2.4009,-2.4027,-2.404,-2.4075,-2.4066,-2.4081,-2.4069,-2.4116,-2.4072,-2.4078,-2.4071,-2.407,-2.4073,-2.4125,-2.4127,-2.4128,-2.4129,0,-2.4037,-2.4027,-2.4044,-2.4057,-2.407,-2.408,-2.4087,-2.4099,-2.4075,-2.409,-2.4111,-2.4121,-2.4141,-2.416,-2.4172,-2.4171,-2.4147,-2.4143,-2.4153,-2.4161,-2.4167,-2.4165,-2.4022,-2.414,-2.4139,-2.4138,-2.4138,-2.4137,-2.4121,-2.4144,-2.4145,-2.4164,-2.4166,-2.4173,-2.4194,-2.4186,-2.4203,-2.4218,-2.4203,-2.4228,-2.4229,-2.4243,-2.4245,-2.4265,-2.4245,-2.426,-2.4263,-2.4268,-2.4274,-2.4163,-2.4267,-2.4266,-2.4266,-2.4266,-2.4265,0,-2.4232,-2.4231,-2.4248,-2.4259,-2.4274,-2.4248,-2.4254,-2.4269,-2.4292,-2.4295,-2.4309,-2.4333,-2.435,-2.4342,-2.4357,-2.4374,-2.4363,-2.4379,-2.4378,-2.4378,-2.429,-2.428,-2.4388,-2.4388,-2.4388,-2.4388,-2.4388,-2.4388,-2.4292,-2.433,-2.432,-2.4359,-2.4357,-2.4381,-2.4387,-2.4393,-2.4396,-2.4424,-2.4439,-2.4433,-2.4431,-2.4446,-2.4461,-2.4458,-2.4466,-2.4486,-2.4479,-2.4397,-2.4385,-2.4373,-2.4364,-2.4488,-2.4488,-2.4566,-2.4567,-2.4567]},{"header":{"parameterUnit":"m.s-1","parameterCategory":1,"la1":30.2991,"la2":30.254,"lo1":-89.0895,"lo2":-89.0444,"dy":0.0017,"dx":0.0017,"nx":28,"ny":28,"refTime":"2024-10-14T21:00:00:Z","depth":0,"parameterNumber":3,"parameterNumberName":"V-component_of_WINDS"},"data":[0,0,0,0,0,0,0,0,0,0,0,0,0,0,0,0,0,0,0,0,0,0,0,0,0,0,0,0,0,0,0,0,0,0,0,0,0,0,0,0,0,0,0,0,0,0,0,0,0,0,0,0,0,0,0,0,0,0,-7.3619,-7.3619,0,-7.3682,-7.3683,-7.3684,-7.3635,-7.3633,-7.3631,-7.3629,-7.3688,-7.3692,-7.3695,0,0,0,0,0,0,0,0,0,0,0,0,0,-7.345,-7.3453,-7.3618,-7.3619,-7.362,-7.3682,-7.3683,-7.3684,-7.3635,-7.3633,-7.363,-7.3628,-7.3687,-7.3691,-7.3695,0,0,0,0,0,0,0,0,0,0,0,0,0,-7.3519,-7.3454,-7.3618,-7.3604,-7.3603,-7.3682,-7.3683,-7.3684,-7.3636,-7.3633,-7.363,-7.3627,-7.3686,-7.3691,-7.3696,-7.3791,0,0,-7.3712,-7.3714,0,0,0,0,0,0,0,0,-7.3515,-7.3525,-7.3605,-7.3605,-7.3604,-7.3648,-7.3645,-7.372,-7.3637,-7.3623,-7.3629,-7.3625,-7.3677,-7.3683,-7.3701,-7.3794,-7.3796,-7.3713,-7.3716,-7.3718,-7.3719,0,0,0,0,0,0,0,-7.3511,-7.3522,-7.3643,-7.3606,-7.3606,-7.3592,-7.3599,-7.3659,-7.3666,-7.3624,-7.3621,-7.3629,-7.3676,-7.3696,-7.3702,-7.3797,-7.3712,-7.3717,-7.372,-7.3722,-7.3972,-7.3975,0,0,0,0,0,0,-7.3508,-7.3519,-7.3641,-7.3645,-7.3551,-7.3598,-7.3605,-7.3637,-7.3666,-7.3667,-7.3632,-7.3627,-7.3689,-7.3696,-7.3704,-7.3818,-7.3718,-7.3723,-7.3726,-7.3968,-7.3972,-7.3976,0,0,0,0,0,0,-7.3505,-7.3519,-7.3639,-7.3581,-7.3595,-7.3604,-7.364,-7.364,-7.366,-7.3672,-7.3672,-7.3652,-7.3687,-7.3697,-7.377,-7.3819,-7.3725,-7.373,-7.3964,-7.3969,-7.3974,-7.4046,0,0,0,0,0,0,-7.35,-7.3519,-7.3556,-7.3583,-7.3599,-7.3706,-7.3643,-7.3643,-7.367,-7.3664,-7.369,-7.3692,-7.3685,-7.3763,-7.3776,-7.3825,-7.3734,-7.396,-7.3966,-7.3973,-7.404,-7.4053,-7.4065,0,0,0,0,0,-7.3494,-7.3572,-7.3558,-7.3573,-7.3646,-7.3709,-7.3718,-7.371,-7.3674,-7.3711,-7.3719,-7.3691,-7.3812,-7.3771,-7.3785,-7.3836,-7.3956,-7.3965,-7.3972,-7.4034,-7.4051,-7.4065,0,0,0,0,0,0,-7.3548,-7.3575,-7.356,-7.3649,-7.3677,-7.37,-7.3747,-7.3728,-7.3765,-7.3758,-7.3745,-7.3751,-7.3829,-7.384,-7.3793,-7.393,-7.3878,-7.3889,-7.392,-7.3936,-7.3949,-7.3945,-7.3739,0,0,0,0,0,-7.3571,-7.3622,-7.3641,-7.3718,-7.3733,-7.3738,-7.3765,-7.3757,-7.3785,-7.3796,-7.3809,-7.3835,-7.3879,-7.3908,-7.3949,-7.4041,-7.4046,-7.4083,-7.4096,-7.4106,-7.4116,-7.4166,-7.4183,-7.4002,-7.4002,-7.4001,0,0,-7.3617,-7.3638,-7.3671,-7.373,-7.375,-7.3802,-7.3748,-7.3804,-7.3842,-7.3803,-7.3875,-7.3885,-7.3914,-7.3997,-7.4035,-7.4009,-7.4167,-7.4116,-7.4125,-7.4128,-7.4176,-7.4193,-7.4208,-7.4007,-7.4006,-7.4005,0,0,-7.3729,-7.375,-7.3817,-7.384,-7.3873,-7.3876,-7.3892,-7.3919,-7.3925,-7.3997,-7.3969,-7.4013,-7.4089,-7.4111,-7.4132,-7.4254,-7.423,-7.4267,-7.4334,-7.4382,-7.4397,-7.4409,-7.4453,-7.4469,-7.4277,-7.4277,-7.4277,0,-7.3781,-7.386,-7.3853,-7.3912,-7.3939,-7.3909,-7.3976,-7.3998,-7.4042,-7.406,-7.4031,-7.4127,-7.4144,-7.4233,-7.4263,-7.4281,-7.4298,-7.4264,-7.4396,-7.4408,-7.442,-7.4461,-7.4478,-7.4281,-7.4281,-7.428,-7.428,0,-7.3924,-7.3979,-7.4028,-7.4075,-7.4107,-7.417,-7.4171,-7.4204,-7.4193,-7.4199,-7.4272,-7.4292,-7.4337,-7.4357,-7.4346,-7.4445,-7.4428,-7.4398,-7.4345,-7.4442,-7.448,-7.4496,-7.4288,-7.4286,-7.4285,-7.4283,0,0,-7.407,-7.4114,-7.4132,-7.4153,-7.4189,-7.423,-7.4291,-7.4338,-7.4366,-7.4398,-7.4448,-7.4514,-7.4487,-7.4511,-7.4502,-7.4545,-7.4641,-7.451,-7.451,-7.4534,-7.4751,-7.4774,-7.4793,-7.4626,-7.4629,-7.4631,-7.4749,0,-7.4183,-7.4293,-7.4289,-7.439,-7.4441,-7.4414,-7.4467,-7.4494,-7.4501,-7.4543,-7.4549,-7.4597,-7.4557,-7.4572,-7.4613,-7.4621,-7.4685,-7.4612,-7.4672,-7.4674,-7.4666,-7.4813,-7.4837,-7.4948,-7.4764,-7.4767,-7.4769,0,-7.433,-7.437,-7.4478,-7.4507,-7.4528,-7.4576,-7.4619,-7.4661,-7.469,-7.4692,-7.472,-7.4705,-7.4766,-7.4712,-7.4795,-7.4746,-7.477,-7.4778,-7.4782,-7.4787,-7.4727,-7.4823,-7.4983,-7.5,-7.4792,-7.4791,-7.4789,0,-7.4427,-7.4507,-7.4582,-7.4601,-7.4637,-7.4672,-7.4688,-7.4715,-7.4743,-7.478,-7.4799,-7.4841,-7.4864,-7.4897,-7.4893,-7.4855,-7.4978,-7.4924,-7.4981,-7.4981,-7.5008,-7.5006,-7.5174,-7.5023,-7.5023,-7.5022,-7.5022,0,-7.4555,-7.4621,-7.4627,-7.4673,-7.4746,-7.4741,-7.4813,-7.4825,-7.485,-7.4897,-7.4875,-7.4919,-7.4911,-7.4955,-7.4952,-7.5022,-7.5032,-7.5035,-7.5033,-7.5037,-7.5037,-7.5052,-7.5045,-7.5027,-7.5026,-7.5025,-7.5024,0,-7.4675,-7.4681,-7.4761,-7.479,-7.4799,-7.4852,-7.4875,-7.4918,-7.4924,-7.4984,-7.4997,-7.5006,-7.5056,-7.5056,-7.5113,-7.5111,-7.5196,-7.5186,-7.5187,-7.5185,-7.5242,-7.5237,-7.5426,-7.5451,-7.5284,-7.5285,-7.5287,0,-7.4756,-7.4807,-7.4842,-7.4874,-7.4893,-7.4943,-7.4973,-7.4969,-7.5001,-7.5039,-7.5078,-7.5127,-7.5166,-7.5248,-7.5257,-7.5301,-7.5291,-7.5355,-7.5297,-7.53,-7.5293,-7.529,-7.5295,-7.5366,-7.5368,-7.5369,-7.537,0,-7.49,-7.4901,-7.4946,-7.4994,-7.5031,-7.5067,-7.51,-7.5126,-7.5126,-7.5162,-7.5215,-7.5246,-7.5306,-7.5354,-7.5397,-7.5411,-7.5391,-7.5389,-7.5404,-7.5409,-7.5408,-7.541,-7.5218,-7.5384,-7.5383,-7.5382,-7.5381,-7.538,-7.5003,-7.5048,-7.5081,-7.5132,-7.5157,-7.5189,-7.5232,-7.5244,-7.5289,-7.5339,-7.5333,-7.5392,-7.542,-7.5476,-7.5494,-7.5539,-7.5517,-7.5539,-7.5545,-7.555,-7.5557,-7.5401,-7.5547,-7.5546,-7.5546,-7.5545,-7.5545,0,-7.5146,-7.5166,-7.5214,-7.5263,-7.5303,-7.5283,-7.5319,-7.5354,-7.5407,-7.5436,-7.5476,-7.5537,-7.5585,-7.5599,-7.5645,-7.5678,-7.567,-7.569,-7.5688,-7.5692,-7.5574,-7.5557,-7.5696,-7.5696,-7.5696,-7.5696,-7.5696,-7.5696,-7.5225,-7.5301,-7.5306,-7.5393,-7.5412,-7.5472,-7.5494,-7.5523,-7.5547,-7.5617,-7.5658,-7.5668,-7.5691,-7.5738,-7.5781,-7.5784,-7.5802,-7.5826,-7.5825,-7.5715,-7.57,-7.5685,-7.5669,-7.583,-7.583,-7.5939,-7.594,-7.5941]}]]